GW1920 Weather Reports


Display with metric or nautical units.
time (UTC)temp
F
wind
direction
speed
MPH
gust
MPH
rain 1hr
in
rain 24hr
in
rain mn
in
humidity
%
barometer
mb
20260906050024 55 3 0.0 0.0 0.00 0.00 0.00 98 1011.8
20260906045522 55 5 0.0 0.0 0.00 0.00 0.00 98 1011.7
20260906045019 55 343 0.0 0.0 0.00 0.00 0.00 99 1011.8
20260906044514 55 343 0.0 0.0 0.00 0.00 0.00 99 1011.8
20260906044010 55 343 0.0 0.0 0.00 0.00 0.00 98 1011.7
20260906043505 55 344 0.0 0.0 0.00 0.00 0.00 98 1011.6
20260906043001 55 344 0.0 0.0 0.00 0.00 0.00 98 1011.7
20260906042500 55 343 0.0 0.0 0.00 0.00 0.00 98 1011.7
20260906041959 55 343 0.0 0.0 0.00 0.00 0.00 98 1011.6
20260906041456 56 343 0.0 0.0 0.00 0.00 0.00 97 1011.5
20260906040955 56 343 0.0 0.0 0.00 0.00 0.00 97 1011.5
20260906040450 56 356 0.0 0.0 0.00 0.00 0.00 97 1011.3
20260906035945 56 26 0.0 0.0 0.00 0.00 0.00 97 1011.2
20260906035441 56 27 0.0 0.0 0.00 0.00 0.00 97 1011.1
20260906034937 57 22 0.0 0.0 0.00 0.00 0.00 97 1011.0
20260906034431 57 16 0.0 0.0 0.00 0.00 0.00 97 1011.1
20260906033927 57 17 0.0 0.0 0.00 0.00 0.00 97 1011.3
20260906033427 57 15 0.0 0.0 0.00 0.00 0.00 96 1011.1
20260906032923 57 6 0.0 0.0 0.00 0.00 0.00 96 1010.8
20260906032419 57 6 0.0 0.0 0.00 0.00 0.00 96 1010.8
20260906031913 57 1 0.0 0.0 0.00 0.00 0.00 95 1010.6
20260906031408 57 1 0.0 0.0 0.00 0.00 0.00 95 1010.9
20260906030903 57 341 0.0 0.0 0.00 0.00 0.00 96 1010.7
20260906030358 57 340 0.0 0.0 0.00 0.00 0.00 96 1011.0
20260906025853 57 340 0.0 0.0 0.00 0.00 0.00 95 1010.9
20260906025347 57 340 0.0 0.0 0.00 0.00 0.00 95 1010.9
20260906024846 57 340 0.0 0.0 0.00 0.00 0.00 95 1010.8
20260906024345 57 341 0.0 0.0 0.00 0.00 0.00 95 1011.0
20260906023841 57 336 0.0 0.0 0.00 0.00 0.00 95 1011.0
20260906023337 57 349 0.0 0.0 0.00 0.00 0.00 95 1011.0
20260906022832 57 344 0.0 0.0 0.00 0.00 0.00 95 1011.1
20260906022326 57 349 0.0 0.0 0.00 0.00 0.00 95 1011.0
20260906021822 58 344 0.0 0.0 0.00 0.00 0.00 95 1011.0
20260906021321 58 348 0.0 0.0 0.00 0.00 0.00 94 1011.1
20260906020816 58 346 0.0 0.0 0.00 0.00 0.00 94 1011.1
20260906020315 58 348 0.0 0.0 0.00 0.00 0.00 94 1011.1
20260906015810 58 337 1.0 1.0 0.00 0.00 0.00 93 1011.2
20260906015308 59 347 1.0 1.0 0.00 0.00 0.00 92 1011.2
20260906014803 59 324 2.0 2.0 0.00 0.00 0.00 91 1011.0
20260906014259 59 345 0.0 0.0 0.00 0.00 0.00 90 1011.0
20260906013754 59 344 1.0 1.0 0.00 0.00 0.00 90 1011.0
20260906013249 59 331 0.0 0.0 0.00 0.00 0.00 91 1011.0
20260906012745 59 343 0.0 0.0 0.00 0.00 0.00 89 1011.0
20260906012240 60 343 0.0 0.0 0.00 0.00 0.00 89 1011.1
20260906011735 60 2 0.0 0.0 0.00 0.00 0.00 89 1011.1
20260906011234 60 325 0.0 0.0 0.00 0.00 0.00 89 1011.0
20260906010730 60 346 0.0 1.0 0.00 0.00 0.00 89 1011.2
20260906010226 60 353 0.0 0.0 0.00 0.00 0.00 89 1011.2
20260906005721 59 342 0.0 0.0 0.00 0.00 0.00 89 1011.1
20260906005220 59 340 1.0 1.0 0.00 0.00 0.00 90 1011.0
20260906004720 59 328 2.0 2.0 0.00 0.00 0.00 90 1011.0
20260906004215 59 349 0.0 0.0 0.00 0.00 0.00 90 1011.2
20260906003710 60 344 2.0 2.0 0.00 0.00 0.00 89 1010.9
20260906003206 60 329 4.0 5.0 0.00 0.00 0.00 88 1010.9
20260906002706 60 351 2.0 2.0 0.00 0.00 0.00 88 1011.0
20260906002200 60 349 1.0 1.0 0.00 0.00 0.00 89 1011.0
20260906001656 60 320 2.0 2.0 0.00 0.00 0.00 89 1011.1
20260906001155 60 333 2.0 2.0 0.00 0.00 0.00 89 1011.0
20260906000651 60 331 1.0 2.0 0.00 0.00 0.00 89 1011.1
20260906000146 60 319 3.0 3.0 0.00 0.00 0.00 88 1011.0
20260905235645 61 332 1.0 1.0 0.00 0.00 0.00 87 1010.9
20260905235140 62 314 2.0 3.0 0.00 0.00 0.00 85 1010.9
20260905234636 61 317 1.0 1.0 0.00 0.00 0.00 86 1011.0
20260905234131 62 351 0.0 0.0 0.00 0.00 0.00 86 1010.8
20260905233626 63 300 2.0 2.0 0.00 0.00 0.00 83 1010.8
20260905233120 61 335 0.0 0.0 0.00 0.00 0.00 86 1011.0
20260905232616 63 274 2.0 2.0 0.00 0.00 0.00 85 1011.0
20260905232111 61 337 1.0 1.0 0.00 0.00 0.00 88 1011.0
20260905231606 60 349 0.0 0.0 0.00 0.00 0.00 89 1011.3
20260905231102 60 348 0.0 0.0 0.00 0.00 0.00 89 1011.3
20260905230603 60 335 0.0 0.0 0.00 0.00 0.00 89 1011.1
20260905230101 61 337 1.0 1.0 0.00 0.00 0.00 88 1011.3
20260905225554 61 345 0.0 0.0 0.00 0.00 0.00 88 1011.4
20260905225049 61 324 0.0 1.0 0.00 0.00 0.00 88 1011.4
20260905224544 60 307 2.0 2.0 0.00 0.00 0.00 89 1011.6
20260905224043 60 347 1.0 2.0 0.00 0.00 0.00 89 1011.3
20260905223541 60 339 2.0 3.0 0.00 0.00 0.00 89 1011.4
20260905223036 60 338 1.0 1.0 0.00 0.00 0.00 89 1011.2
20260905222531 61 327 2.0 2.0 0.00 0.00 0.00 87 1011.2
20260905222026 64 328 1.0 1.0 0.00 0.00 0.00 82 1011.1
20260905221522 64 312 3.0 3.0 0.00 0.00 0.00 83 1011.0
20260905221018 63 329 1.0 2.0 0.00 0.00 0.00 84 1011.1
20260905220514 62 344 0.0 1.0 0.00 0.00 0.00 85 1010.9
20260905220010 64 325 1.0 1.0 0.00 0.00 0.00 83 1011.2
20260905215504 63 335 0.0 1.0 0.00 0.00 0.00 83 1011.0
20260905215000 64 348 0.0 0.0 0.00 0.00 0.00 83 1011.1
20260905214456 65 325 1.0 1.0 0.00 0.00 0.00 80 1011.0
20260905213956 65 336 1.0 2.0 0.00 0.00 0.00 79 1011.0
20260905213452 64 335 1.0 2.0 0.00 0.00 0.00 80 1010.9
20260905212947 64 325 4.0 5.0 0.00 0.00 0.00 80 1011.1
20260905212442 64 314 4.0 6.0 0.00 0.00 0.00 81 1010.8
20260905211941 63 346 1.0 1.0 0.00 0.00 0.00 82 1010.8
20260905211437 63 340 1.0 1.0 0.00 0.00 0.00 82 1011.0
20260905210932 64 339 2.0 2.0 0.00 0.00 0.00 81 1010.8
20260905210433 64 335 1.0 1.0 0.00 0.00 0.00 82 1011.1
20260905205932 64 331 3.0 3.0 0.00 0.00 0.00 81 1010.9
20260905205427 66 334 1.0 2.0 0.00 0.00 0.00 80 1010.9
20260905204926 65 330 1.0 1.0 0.00 0.00 0.00 80 1010.7
20260905204422 64 344 0.0 1.0 0.00 0.00 0.00 82 1010.8
20260905203921 64 353 1.0 1.0 0.00 0.00 0.00 81 1010.7
20260905203416 65 336 1.0 1.0 0.00 0.00 0.00 81 1010.8
20260905202912 65 333 1.0 1.0 0.00 0.00 0.00 79 1010.9
20260905202407 65 328 1.0 1.0 0.00 0.00 0.00 79 1010.7
20260905201902 65 326 3.0 3.0 0.00 0.00 0.00 77 1010.7
20260905201357 64 327 1.0 1.0 0.00 0.00 0.00 78 1010.6
20260905200851 64 326 2.0 2.0 0.00 0.00 0.00 78 1010.9
20260905200348 64 326 3.0 3.0 0.00 0.00 0.00 78 1010.7
20260905195845 65 336 2.0 2.0 0.00 0.00 0.00 78 1010.6
20260905195335 66 341 2.0 2.0 0.00 0.00 0.00 76 1010.7
20260905194831 65 335 1.0 1.0 0.00 0.00 0.00 78 1010.7
20260905194331 64 329 1.0 2.0 0.00 0.00 0.00 80 1010.8
20260905193830 64 331 2.0 2.0 0.00 0.00 0.00 81 1011.0
20260905193325 63 330 3.0 3.0 0.00 0.00 0.00 81 1010.9
20260905192821 63 334 1.0 1.0 0.00 0.00 0.00 83 1010.9
20260905192317 63 334 3.0 3.0 0.00 0.00 0.00 83 1011.1
20260905191815 62 346 1.0 1.0 0.00 0.00 0.00 83 1011.1
20260905191314 62 322 3.0 3.0 0.00 0.00 0.00 83 1011.0
20260905190813 62 334 2.0 2.0 0.00 0.00 0.00 82 1010.8
20260905190313 62 336 3.0 3.0 0.00 0.00 0.00 82 1011.0
20260905185811 62 320 3.0 3.0 0.00 0.00 0.00 81 1010.9
20260905185306 64 331 3.0 3.0 0.00 0.00 0.00 79 1010.8
20260905184801 64 327 2.0 2.0 0.00 0.00 0.00 78 1010.7
20260905184259 64 341 1.0 2.0 0.00 0.00 0.00 79 1010.5
20260905183753 64 341 1.0 2.0 0.00 0.00 0.00 79 1010.5
20260905183249 64 340 1.0 1.0 0.00 0.00 0.00 80 1010.6
20260905182748 63 340 1.0 2.0 0.00 0.00 0.00 81 1010.7
20260905182248 63 349 1.0 1.0 0.00 0.00 0.00 82 1010.5
20260905181743 64 356 1.0 2.0 0.00 0.00 0.00 81 1010.8
20260905181242 63 357 1.0 2.0 0.00 0.00 0.00 81 1010.9
20260905180737 63 356 1.0 1.0 0.00 0.00 0.00 81 1010.8
20260905180232 63 356 0.0 1.0 0.00 0.00 0.00 80 1010.8
20260905175727 62 351 1.0 1.0 0.00 0.00 0.00 82 1010.8
20260905175221 61 14 1.0 1.0 0.00 0.00 0.00 85 1011.0
20260905174716 62 20 0.0 1.0 0.00 0.00 0.00 83 1010.7
20260905174212 62 181 3.0 3.0 0.00 0.00 0.00 83 1011.0
20260905173709 60 65 0.0 0.0 0.00 0.00 0.00 85 1011.1
20260905173204 59 1 1.0 1.0 0.00 0.00 0.00 89 1011.0
20260905172703 59 0 1.0 1.0 0.00 0.00 0.00 90 1010.9
20260905172157 58 5 1.0 1.0 0.00 0.00 0.00 90 1011.1
20260905171653 57 9 0.0 1.0 0.00 0.00 0.00 93 1011.2
20260905171149 56 356 0.0 0.0 0.00 0.00 0.00 95 1011.0
20260905170646 56 10 0.0 0.0 0.00 0.00 0.00 97 1011.0
20260905170141 55 349 2.0 2.0 0.00 0.00 0.00 98 1010.9
20260905165640 55 2 0.0 1.0 0.00 0.00 0.00 99 1010.9
20260905165136 54 353 2.0 2.0 0.00 0.00 0.00 99 1010.8
20260905164631 54 357 1.0 2.0 0.00 0.00 0.00 99 1010.8
20260905164130 54 2 1.0 1.0 0.00 0.00 0.00 99 1010.9
20260905163626 54 356 1.0 1.0 0.00 0.00 0.00 99 1011.0
20260905163123 53 0 0.0 1.0 0.00 0.00 0.00 99 1011.0
20260905162619 53 352 2.0 2.0 0.00 0.00 0.00 99 1010.9
20260905162118 53 359 1.0 1.0 0.00 0.00 0.00 99 1010.9
20260905161617 53 3 1.0 1.0 0.00 0.00 0.00 99 1011.0
20260905161116 52 9 1.0 1.0 0.00 0.00 0.00 99 1011.0
20260905160615 52 13 0.0 0.0 0.00 0.00 0.00 99 1010.9
20260905160109 51 15 0.0 0.0 0.00 0.00 0.00 99 1010.9
20260905155604 51 21 0.0 0.0 0.00 0.00 0.00 99 1010.8
20260905155103 51 25 0.0 0.0 0.00 0.00 0.00 99 1010.9
20260905154557 51 25 0.0 0.0 0.00 0.00 0.00 99 1010.9
20260905154053 50 25 0.0 0.0 0.00 0.00 0.00 99 1010.9
20260905153548 50 25 0.0 0.0 0.00 0.00 0.00 99 1010.8
20260905153048 50 25 0.0 0.0 0.00 0.00 0.00 99 1010.7
20260905152543 50 25 0.0 0.0 0.00 0.00 0.00 99 1010.8
20260905152038 49 25 0.0 0.0 0.00 0.00 0.00 99 1010.9
20260905151533 49 25 0.0 0.0 0.00 0.00 0.00 99 1011.0
20260905151029 49 25 0.0 0.0 0.00 0.00 0.00 99 1011.1
20260905150524 49 25 0.0 0.0 0.00 0.00 0.00 99 1011.0
20260905150021 48 25 0.0 0.0 0.00 0.00 0.00 99 1011.0
20260905145514 48 25 0.0 0.0 0.00 0.00 0.00 99 1011.0
20260905145009 48 25 0.0 0.0 0.00 0.00 0.00 99 1011.0
20260905144504 48 25 0.0 0.0 0.00 0.00 0.00 99 1011.3
20260905144003 48 25 0.0 0.0 0.00 0.00 0.00 99 1011.2
20260905143502 48 25 0.0 0.0 0.00 0.00 0.00 99 1010.9
20260905142957 48 25 0.0 0.0 0.00 0.00 0.00 99 1011.0
20260905142456 48 25 0.0 0.0 0.00 0.00 0.00 99 1011.1
20260905141951 48 25 0.0 0.0 0.00 0.00 0.00 99 1010.9
20260905141446 48 25 0.0 0.0 0.00 0.00 0.00 99 1010.8
20260905140943 48 25 0.0 0.0 0.00 0.00 0.00 99 1010.9
20260905140437 48 25 0.0 0.0 0.00 0.00 0.00 99 1010.8
20260905135935 48 26 0.0 0.0 0.00 0.00 0.00 99 1010.7
20260905135431 48 25 0.0 0.0 0.00 0.00 0.00 99 1010.8
20260905134921 48 25 0.0 0.0 0.00 0.00 0.00 99 1010.7
20260905134420 48 25 0.0 0.0 0.00 0.00 0.00 99 1010.6
20260905133914 48 25 0.0 0.0 0.00 0.00 0.00 99 1010.5
20260905133409 48 25 0.0 0.0 0.00 0.00 0.00 99 1010.7
20260905132909 48 25 0.0 0.0 0.00 0.00 0.00 99 1010.6
20260905132404 48 25 0.0 0.0 0.00 0.00 0.00 99 1010.4
20260905131858 48 25 0.0 0.0 0.00 0.00 0.00 99 1010.3
20260905131354 48 25 0.0 0.0 0.00 0.00 0.00 99 1010.3
20260905130849 48 25 0.0 0.0 0.00 0.00 0.00 99 1010.3
20260905130348 48 25 0.0 0.0 0.00 0.00 0.00 99 1010.4
20260905125843 48 25 0.0 0.0 0.00 0.00 0.00 99 1010.5
20260905125338 48 25 0.0 0.0 0.00 0.00 0.00 99 1010.2
20260905124834 48 25 0.0 0.0 0.00 0.00 0.00 99 1010.5
20260905124331 48 25 0.0 0.0 0.00 0.00 0.00 99 1010.3
20260905123830 48 26 0.0 0.0 0.00 0.00 0.00 99 1010.6
20260905123327 48 27 0.0 0.0 0.00 0.00 0.00 99 1010.4
20260905122827 48 24 0.0 0.0 0.00 0.00 0.00 99 1010.6
20260905122326 48 25 0.0 0.0 0.00 0.00 0.00 99 1010.6
20260905121822 48 22 0.0 0.0 0.00 0.00 0.00 99 1010.6
20260905121318 49 21 0.0 0.0 0.00 0.00 0.00 99 1010.7
20260905120817 48 21 0.0 0.0 0.00 0.00 0.00 99 1010.8
20260905120312 49 22 0.0 0.0 0.00 0.00 0.00 99 1010.6
20260905115806 49 20 0.0 0.0 0.00 0.00 0.00 99 1010.7
20260905115306 49 20 0.0 0.0 0.00 0.00 0.00 99 1010.8
20260905114800 49 20 0.0 0.0 0.00 0.00 0.00 99 1010.5
20260905114259 49 20 0.0 0.0 0.00 0.00 0.00 99 1010.8
20260905113759 49 20 0.0 0.0 0.00 0.00 0.00 99 1010.6
20260905113255 49 20 0.0 0.0 0.00 0.00 0.00 99 1010.6
20260905112750 49 20 0.0 0.0 0.00 0.00 0.00 99 1010.7
20260905112250 49 15 0.0 0.0 0.00 0.00 0.00 99 1010.5
20260905111745 49 30 0.0 0.0 0.00 0.00 0.00 99 1010.5
20260905111239 49 30 0.0 0.0 0.00 0.00 0.00 99 1010.9
20260905110738 49 25 0.0 0.0 0.00 0.00 0.00 99 1010.6
20260905110233 49 30 0.0 0.0 0.00 0.00 0.00 99 1010.6
20260905105728 49 30 0.0 0.0 0.00 0.00 0.00 99 1010.6
20260905105227 49 23 0.0 0.0 0.00 0.00 0.00 99 1010.6
20260905104722 49 39 0.0 0.0 0.00 0.00 0.00 99 1010.7
20260905104219 49 40 0.0 1.0 0.00 0.00 0.00 99 1010.7
20260905103713 49 33 0.0 1.0 0.00 0.00 0.00 99 1010.7
20260905103209 49 39 0.0 0.0 0.00 0.00 0.00 99 1010.5
20260905102704 49 37 0.0 0.0 0.00 0.00 0.00 99 1011.1
20260905102201 50 31 0.0 0.0 0.00 0.00 0.00 99 1010.8
20260905101659 50 27 0.0 0.0 0.00 0.00 0.00 99 1011.0
20260905101158 50 25 0.0 0.0 0.00 0.00 0.00 99 1011.0
20260905100654 50 27 0.0 0.0 0.00 0.00 0.00 99 1010.9
20260905100149 50 22 0.0 0.0 0.00 0.00 0.00 99 1011.0
20260905095648 50 21 0.0 0.0 0.00 0.00 0.00 99 1010.8
20260905095143 50 21 0.0 0.0 0.00 0.00 0.00 99 1011.0
20260905094638 50 29 0.0 0.0 0.00 0.00 0.00 99 1010.8
20260905094137 50 35 0.0 0.0 0.00 0.00 0.00 99 1010.8
20260905093632 50 38 0.0 0.0 0.00 0.00 0.00 99 1010.9
20260905093129 50 36 0.0 0.0 0.00 0.00 0.00 99 1010.9
20260905092628 50 32 0.0 0.0 0.00 0.00 0.00 99 1011.0
20260905092125 50 32 0.0 0.0 0.00 0.00 0.00 99 1010.7
20260905091624 50 33 0.0 0.0 0.00 0.00 0.00 99 1010.9
20260905091124 50 27 0.0 0.0 0.00 0.00 0.00 99 1011.0
20260905090618 50 27 0.0 0.0 0.00 0.00 0.00 99 1011.1
20260905090114 50 27 0.0 0.0 0.00 0.00 0.00 99 1011.2
20260905085612 50 26 0.0 0.0 0.00 0.00 0.00 99 1011.2
20260905085108 50 26 0.0 0.0 0.00 0.00 0.00 99 1011.0
20260905084607 50 26 0.0 0.0 0.00 0.00 0.00 99 1011.3
20260905084103 50 27 0.0 0.0 0.00 0.00 0.00 99 1011.3
20260905083557 51 27 0.0 0.0 0.00 0.00 0.00 99 1011.1
20260905083054 51 28 0.0 0.0 0.00 0.00 0.00 99 1011.1
20260905082549 51 24 0.0 0.0 0.00 0.00 0.00 99 1011.1
20260905082045 51 24 0.0 0.0 0.00 0.00 0.00 99 1010.9
20260905081543 51 21 0.0 0.0 0.00 0.00 0.00 99 1011.1
20260905081038 51 20 0.0 0.0 0.00 0.00 0.00 99 1010.8
20260905080532 51 18 0.0 0.0 0.00 0.00 0.00 99 1011.1
20260905080028 51 11 0.0 0.0 0.00 0.00 0.00 99 1010.9
20260905075521 51 18 0.0 0.0 0.00 0.00 0.00 99 1011.1
20260905075020 51 28 0.0 0.0 0.00 0.00 0.00 99 1011.0
20260905074510 51 13 0.0 0.0 0.00 0.00 0.00 99 1010.9
20260905074005 51 13 0.0 0.0 0.00 0.00 0.00 99 1010.7
20260905073500 52 2 0.0 0.0 0.00 0.00 0.00 99 1011.0
20260905072955 52 28 0.0 0.0 0.00 0.00 0.00 99 1010.9
20260905072450 52 7 0.0 0.0 0.00 0.00 0.00 99 1011.0
20260905071945 52 38 0.0 0.0 0.00 0.00 0.00 99 1011.0
20260905071443 52 9 0.0 0.0 0.00 0.00 0.00 99 1010.6
20260905070942 52 9 0.0 0.0 0.00 0.00 0.00 99 1010.8
20260905070438 52 18 0.0 0.0 0.00 0.00 0.00 99 1010.8
20260905065937 52 11 0.0 0.0 0.00 0.00 0.00 99 1011.0
20260905065436 52 29 0.0 0.0 0.00 0.00 0.00 99 1011.0
20260905064931 52 31 0.0 0.0 0.00 0.00 0.00 99 1010.7
20260905064426 52 32 0.0 0.0 0.00 0.00 0.00 99 1010.7
20260905063921 52 25 0.0 0.0 0.00 0.00 0.00 99 1010.9
20260905063416 52 24 0.0 0.0 0.00 0.00 0.00 99 1010.9
20260905062912 53 26 0.0 0.0 0.00 0.00 0.00 99 1010.9
20260905062406 53 11 0.0 0.0 0.00 0.00 0.00 99 1010.8
20260905061901 53 29 0.0 0.0 0.00 0.00 0.00 99 1010.6
20260905061401 53 27 0.0 0.0 0.00 0.00 0.00 98 1010.6
20260905060855 53 12 0.0 0.0 0.00 0.00 0.00 98 1010.6
20260905060352 53 11 0.0 0.0 0.00 0.00 0.00 98 1010.7
20260905055851 53 29 0.0 1.0 0.00 0.00 0.00 98 1010.8
20260905055346 53 26 0.0 1.0 0.00 0.00 0.00 98 1010.9
20260905054845 54 37 0.0 0.0 0.00 0.00 0.00 98 1010.9
20260905054342 54 28 0.0 1.0 0.00 0.00 0.00 98 1011.0
20260905053841 54 10 0.0 0.0 0.00 0.00 0.00 98 1010.9
20260905053341 54 16 0.0 0.0 0.00 0.00 0.00 98 1010.9
20260905052837 54 18 0.0 0.0 0.00 0.00 0.00 98 1011.0
20260905052331 54 48 0.0 0.0 0.00 0.00 0.00 98 1011.0
20260905051831 54 18 0.0 0.0 0.00 0.00 0.00 99 1011.0
20260905051327 54 37 0.0 0.0 0.00 0.00 0.00 99 1011.0
20260905050823 54 20 0.0 0.0 0.00 0.00 0.00 99 1010.8
20260905050320 54 353 0.0 1.0 0.00 0.00 0.00 99 1011.1